Regional Weather Roundup
Issued by NWS

Home | Current Version | Previous Version | Text Only | Print | Product List | Glossary Off
Versions: 1 2 3 4 5 6 7 8 9 10 11 12 13 14 15 16 17 18 19 20 21 22 23 24 25 26 27 28 29 30 31 32 33 34 35 36 37 38 39 40 41 42 43 44 45 46 47 48 49 50

000
ASUS43 KTOP 032259
RWRKS

WEATHER ROUNDUP FOR KANSAS
NATIONAL WEATHER SERVICE GOODLAND KS
600 PM CDT TUE MAY 03 2016

NOTE:  "FAIR" INDICATES FEW OR NO CLOUDS BELOW 12,000 FEET WITH NO
SIGNIFICANT WEATHER AND/OR OBSTRUCTIONS TO VISIBILITY.

KSZ001>006-013>018-027>032-041>047-040000-
NORTHWEST KANSAS

CITY           SKY/WX    TMP DP  RH WIND       PRES   REMARKS
GOODLAND       SUNNY     67  34  29 N17G24    30.09S
HAYS           PTSUNNY   66  43  42 NW10      30.03S
HILL CITY      SUNNY     70  42  36 NW10      30.05S
RUSSELL        MOSUNNY   69  43  38 W10       30.00F
$$

KSZ061>065-074>080-084>089-040000-
SOUTHWEST KANSAS

CITY           SKY/WX    TMP DP  RH WIND       PRES   REMARKS
DODGE CITY     MOSUNNY   64  39  39 N12       30.06R
ELKHART          N/A     66  36  33 N15         N/A
GARDEN CITY    SUNNY     65  38  36 NW18      30.07S
GREAT BEND     PTSUNNY   68  45  42 N7        30.02S
LIBERAL        MOSUNNY   68  41  37 N16G24    30.08S
$$

KSZ066>073-081>083-090>101-040000-
SOUTHEAST KANSAS

CITY           SKY/WX    TMP DP  RH WIND       PRES   REMARKS
CHANUTE        PTSUNNY   69  43  38 W7        29.99F
COFFEYVILLE    CLOUDY    71  44  37 W3        30.00F
HUTCHINSON     SUNNY     72  43  35 W9        29.99S
MEDICINE LODGE   N/A     72  41  32 NE3       29.99S
NEWTON         MOSUNNY   70  43  37 SW10      30.01F
PARSONS        PTSUNNY   69  46  43 W3        30.00F
WICHITA INTL   PTSUNNY   72  42  34 SW10      29.99F
WICHITA JABRA  PTSUNNY   68  42  38 W12       29.99F
WINFIELD       PTSUNNY   69  45  41 SW3       30.37R
$$

KSZ007>012-019>026-033>040-048>060-102>105-040000-
NORTHEAST KANSAS

CITY           SKY/WX    TMP DP  RH WIND       PRES   REMARKS
CONCORDIA      MOSUNNY   70  41  34 NW14      29.98F
EMPORIA        MOSUNNY   68  42  38 W6        29.97F
LAWRENCE       MOSUNNY   68  43  40 SW6       29.96F
MANHATTAN      MOSUNNY   73  40  30 W6        29.96F
OLATHE IND     MOSUNNY   66  43  43 W8        29.98F
OLATHE EXE     MOSUNNY   67  40  37 W10       29.97F
SALINA         SUNNY     73  44  35 NW10      29.98S
TOPEKA BILLARD MOSUNNY   71  42  35 W7G17     29.96F
TOPEKA FORBES  SUNNY     71  44  37 W7        29.96F
$$




USA.gov is the U.S. government's official web portal to all federal, state and local government web resources and services.